Cloud_Cover
100 92 100 100 100 100 100 100 100 63 96 83 70 100 94 7 92 34 87 100 84 100 88 100 100 100 100 100 100 100 100 100 100 100 100 100 100 97 11 5 5 5 18 98
100 98 100 100 41 100 100 100 100 100 100 85 100 100 100 100 100 88 100 100 94 20 96 8 100 100 100 100 100 100 100 100 100 100 100 100 70 100 90 77 50 66 100 100
100 100 100 87 100 11 100 100 100 100 8 100 100 98 100 100 100 100 100 100 100 7 52 34 99 100 100 100 100 100 100 100 100 100 100 100 100 94 100 99 93 50 25 58
100 100 95 66 68 75 88 23 81 100 98 100 52 100 100 100 100 100 100 34 67 100 100 100 100 100 100 100 100 100 100 100 100 89 100 85 99 97 100 11 0 0 1 4
100 100 98 61 100 91 100 8 98 100 100 100 100 100 100 100 100 100 100 99 99 98 100 100 100 100 100 100 100 100 100 100 100 85 100 100 100 60 4 0 0 0 0 5
100 100 99 100 100 42 14 10 27 92 55 85 91 100 100 100 100 100 100 100 100 100 100 100 100 100 100 100 100 100 100 100 100 100 100 100 92 5 0 0 0 0 0 0
100 100 96 100 76 9 16 40 82 100 81 100 100 100 100 100 100 100 100 100 100 100 100 100 100 100 100 100 100 100 100 100 100 100 100 100 18 5 1 0 0 0 1 0
100 100 86 100 58 13 43 79 52 99 100 100 100 100 100 100 100 100 100 100 100 100 100 100 100 100 100 100 100 100 100 100 100 100 100 38 5 5 5 2 4 4 3 5
100 100 99 55 87 15 100 100 97 100 100 82 100 100 100 100 100 100 100 100 100 100 77 68 52 93 100 100 100 100 100 100 100 100 90 72 35 14 5 5 5 5 5 5
86 93 100 82 6 68 100 100 98 76 100 100 100 100 100 100 100 100 100 100 85 6 6 50 40 95 100 100 100 100 100 100 100 100 100 100 68 33 26 31 32 6 5 5
96 100 100 100 87 7 99 100 100 100 100 100 100 100 100 100 100 99 96 23 9 8 51 60 54 100 100 100 100 100 100 100 100 100 100 93 75 99 100 95 71 56 69 55
100 100 98 78 6 5 92 100 100 100 100 100 100 100 100 100 100 100 100 79 30 87 100 96 82 96 100 100 100 100 100 100 100 100 100 100 69 83 100 96 88 100 94 99
93 96 99 100 5 5 59 100 100 100 100 100 100 100 100 100 97 86 100 100 90 100 100 100 100 100 100 100 100 100 100 100 100 100 100 100 100 100 100 100 100 100 100 100
34 100 76 100 5 5 8 100 100 100 100 100 100 100 100 100 100 89 100 100 98 76 100 100 100 100 100 100 100 100 100 100 100 100 100 100 100 100 100 100 100 100 100 100
100 100 91 16 4 5 5 93 100 100 100 100 100 100 62 50 66 100 100 100 84 100 90 94 100 100 100 100 100 100 100 100 100 100 100 100 100 100 100 100 100 100 100 100
50 8 5 5 5 29 98 99 44 87 100 100 100 99 62 86 96 93 96 73 87 100 98 96 87 100 99 99 100 100 100 100 100 100 100 100 100 100 100 100 100 100 100 100
79 20 13 90 93 99 100 95 73 97 84 87 100 81 91 85 85 82 74 100 98 100 100 100 100 100 100 100 100 100 98 100 100 100 100 100 100 100 100 100 100 100 100 100
7 85 86 55 19 64 99 100 49 59 84 73 83 80 100 100 100 99 99 99 100 100 100 100 100 100 100 100 100 100 100 100 100 100 100 100 100 100 100 100 100 100 100 100
74 98 100 96 78 98 96 100 100 90 97 72 93 100 100 100 100 100 100 100 100 100 100 100 100 100 100 100 100 100 100 100 100 100 100 100 100 100 100 100 100 100 100 100
100 100 100 100 100 100 100 100 100 100 100 100 100 100 100 100 100 100 100 100 100 100 100 100 100 100 100 100 100 100 100 100 100 100 100 100 100 100 100 100 100 100 100 100
100 100 100 100 100 100 100 100 100 100 100 100 100 100 100 100 100 100 100 100 100 100 100 100 100 100 100 100 100 100 100 100 100 100 100 100 100 100 100 100 100 100 100 100
100 100 100 100 100 100 100 100 100 100 100 100 100 100 91 87 65 60 82 94 100 100 100 100 100 100 100 100 100 100 100 100 100 100 100 100 100 100 100 100 100 100 100 100
100 100 100 100 100 100 100 100 100 100 100 100 100 100 100 100 100 100 98 69 67 70 69 95 100 100 100 100 100 100 100 100 100 100 100 100 100 100 100 100 100 100 100 100
100 100 100 100 100 100 100 100 100 100 100 100 100 100 100 100 100 100 100 100 81 71 78 73 80 75 76 80 92 96 99 100 100 100 100 100 100 100 100 100 100 100 100 100
100 100 100 100 100 100 100 100 100 100 100 100 100 100 100 100 100 100 100 100 98 100 100 95 75 77 92 100 100 100 100 100 100 100 100 100 100 100 100 100 100 100 100 100
100 100 100 100 100 100 100 100 100 100 100 100 100 100 100 100 100 100 100 100 100 98 100 100 100 100 100 100 100 100 100 100 99 100 100 100 100 100 100 100 99 100 100 100
100 100 100 100 100 100 100 100 100 100 100 100 100 100 100 100 100 100 100 100 100 100 100 100 100 100 100 100 100 100 100 100 96 100 100 100 100 100 100 100 100 100 100 100